Temperature
17 17 17 17 17 17 17 17 17 17 17 17 16 16 16 16 16 16 16 16 16 16 16 16 16 16 16 16 16 16 17 17 17 17 17 17 17 17 17 16 16 16 16
17 17 17 17 17 17 17 17 17 17 17 17 16 16 16 16 16 16 16 16 16 16 16 16 16 16 16 16 16 16 16 16 16 16 16 16 16 16 16 16 16 15 15
17 17 17 17 17 17 17 16 16 16 16 16 16 16 16 16 16 16 16 16 16 15 15 15 15 15 15 15 15 15 15 15 15 15 15 15 15 15 15 15 15 15 15
17 17 17 17 16 16 16 16 16 16 16 16 16 16 16 16 16 15 15 15 15 15 15 15 15 15 14 14 14 14 14 14 14 14 14 14 14 14 14 14 14 14 14
17 17 17 17 16 16 16 16 16 16 16 16 16 16 15 15 15 15 15 15 15 14 14 14 14 14 14 14 14 13 13 13 13 13 13 13 13 13 13 13 13 13 13
18 17 17 16 16 16 16 16 16 16 16 15 15 15 15 15 15 15 14 14 14 14 14 13 13 13 13 13 13 13 12 12 12 12 12 12 12 12 12 12 12 12 12
17 17 17 16 16 16 16 16 16 15 15 15 15 14 14 14 14 14 14 14 13 13 13 13 12 12 12 12 12 12 12 11 11 11 11 11 11 11 11 11 11 11 11
17 16 16 16 16 16 15 15 15 15 14 14 14 14 14 13 13 13 13 13 12 12 12 12 11 11 11 11 11 11 10 10 10 10 10 10 10 10 10 9 9 9 10
16 16 16 16 15 15 15 14 14 14 13 13 13 13 13 12 12 12 12 12 11 11 11 11 11 10 10 10 10 10 10 9 9 9 9 9 9 9 9 9 8 8 8
15 15 15 15 14 14 14 13 13 13 13 12 12 12 12 12 11 11 11 11 11 10 10 10 10 9 9 9 9 9 9 9 9 9 9 9 8 8 8 8 7 7 7
14 14 14 14 13 13 13 12 12 12 12 12 11 11 11 11 10 10 10 10 10 10 9 9 8 8 8 8 8 8 7 7 7 7 7 7 7 7 7 7 7 6 6
13 13 13 12 12 12 12 11 11 11 11 11 11 10 10 9 9 9 9 9 9 9 8 8 8 8 7 7 7 6 6 6 6 6 6 6 6 6 6 6 6 6 6
13 12 12 11 11 11 11 11 11 11 11 11 10 10 9 8 8 8 8 8 8 8 8 7 7 7 7 6 6 6 6 5 5 5 5 5 5 5 5 5 5 5 5
12 11 11 11 10 11 10 11 11 11 11 10 10 9 8 8 8 8 8 7 7 7 7 7 7 7 6 6 6 5 5 4 4 4 4 4 3 3 3 3 3 3 3
11 10 10 10 10 10 10 10 10 10 10 10 9 9 8 8 8 7 7 7 7 6 6 6 6 6 6 5 5 4 4 4 3 3 3 3 3 2 2 2 2 2 2
10 10 10 10 10 10 10 10 9 9 9 9 8 8 7 7 7 6 6 6 6 6 5 5 5 5 4 4 4 3 3 3 2 2 2 2 2 1 1 1 1 1 1
10 10 10 10 10 9 9 9 9 8 8 7 7 7 6 6 6 5 5 5 5 5 5 5 4 4 4 3 3 2 2 2 2 1 1 1 1 1 1 1 1 1 1
10 10 10 10 9 9 9 9 8 8 7 7 6 6 5 5 5 5 5 5 5 5 4 4 3 3 3 2 2 2 1 1 1 1 1 0 0 0 0 -0 -0 0 -0
9 9 9 9 9 9 9 8 8 7 7 6 6 5 5 5 5 4 4 4 4 4 3 3 3 2 2 2 1 1 1 1 0 0 0 -0 -0 -0 -0 -0 -0 -0 -0
9 9 9 9 9 8 8 8 8 7 7 6 5 5 5 5 5 4 4 3 3 3 3 2 2 2 2 1 1 1 0 0 -0 -0 -0 -1 -1 -1 -1 -1 -1 -1 -1
8 8 8 8 8 8 8 8 7 7 6 6 5 5 5 5 4 4 4 3 3 2 2 2 1 1 1 1 0 -0 -0 -0 -1 -1 -1 -1 -1 -1 -1 -1 -1 -1 -1
8 8 8 7 7 7 7 7 7 6 6 6 5 5 4 4 4 3 3 3 2 2 2 1 1 1 1 0 -0 -1 -1 -1 -1 -1 -1 -1 -1 -1 -1 -1 -1 -1 -1
8 8 7 7 7 7 7 6 6 6 6 5 5 4 4 3 3 3 3 2 2 2 1 1 1 1 0 -0 -0 -1 -1 -1 -1 -1 -1 -1 -1 -1 -1 -1 -1 -1 -1
8 8 7 7 7 7 6 6 6 6 5 5 4 4 4 3 3 3 2 2 2 1 1 1 1 0 0 -0 -1 -1 -1 -1 -1 -1 -1 -1 -1 -1 -1 -1 -1 -1 -1
7 7 7 7 6 6 6 6 5 5 5 4 4 4 3 3 3 2 2 2 1 1 1 1 0 0 -0 -0 -1 -1 -1 -1 -1 -1 -1 -1 -1 -1 -1 -1 -1 -1 -1
7 7 6 6 6 6 6 5 5 5 4 4 4 3 3 3 3 2 2 1 1 1 1 0 0 0 -0 -0 -1 -1 -1 -1 -1 -1 -1 -1 -1 -1 -1 -1 -1 -1 -1
Wind_Speed
11 9 9 9 8 6 5 4 3 4 6 6 6 5 5 4 4 4 4 3 4 3 3 2 2 3 3 4 3 3 3 2 3 4 2 1 1 0 3 5 8 9 13
10 10 9 9 8 7 7 6 5 4 4 5 4 4 3 3 3 3 4 3 2 2 2 2 2 2 2 3 4 4 3 3 3 4 4 3 2 2 2 4 6 10 10
11 10 9 8 8 7 6 6 5 4 3 3 4 3 2 1 1 1 2 1 0 0 1 0 1 2 2 2 2 4 4 4 3 3 5 4 3 3 3 4 6 5 11
11 10 9 8 8 7 6 6 5 5 4 3 3 3 3 3 3 2 1 1 2 3 4 4 4 4 4 4 3 4 5 5 5 4 5 4 4 4 3 3 5 4 6
11 10 10 9 8 7 7 6 6 6 5 4 4 4 4 4 4 3 2 3 3 4 5 5 6 7 8 6 4 5 5 4 5 5 5 5 4 5 4 4 5 5 5
9 9 9 9 9 8 8 8 7 6 6 7 7 7 8 7 8 9 6 4 5 5 5 4 5 7 7 7 6 5 4 4 4 4 4 5 6 6 5 6 5 5 5
9 8 9 9 8 8 9 9 8 8 8 9 9 10 11 11 12 12 10 6 6 6 6 5 6 9 10 8 6 4 3 2 2 3 4 5 5 5 5 6 6 7 7
9 8 8 9 9 9 9 10 10 9 10 10 11 12 11 12 13 13 10 5 6 6 7 7 7 8 9 9 7 7 6 5 3 3 3 4 5 4 4 5 7 8 8
10 9 10 11 12 12 12 11 10 10 11 11 11 11 11 11 14 14 10 4 5 5 7 8 8 8 9 11 7 7 7 6 7 8 8 9 12 13 9 5 6 6 7
12 12 12 12 13 13 12 12 10 10 10 11 11 10 11 10 13 15 12 6 5 4 6 8 11 9 8 9 6 6 6 7 9 11 9 11 10 10 11 7 5 6 6
14 14 14 13 13 12 11 9 9 10 10 10 10 10 9 9 11 14 14 8 7 5 4 5 5 6 6 6 6 4 5 7 8 9 8 6 5 4 3 3 3 4 6
15 15 14 12 12 12 10 9 8 8 9 8 8 9 8 8 9 9 11 11 9 7 5 5 4 6 8 8 6 6 9 9 7 6 6 6 6 7 7 7 8 8 8
16 15 13 13 11 9 9 8 6 5 5 6 6 6 7 6 6 7 7 8 8 5 5 7 8 10 10 7 4 7 7 5 5 6 7 7 7 7 7 6 8 9 10
15 13 12 12 11 11 9 8 8 6 5 6 6 7 7 8 8 7 6 6 8 7 8 10 11 8 6 6 5 3 3 4 5 6 6 6 7 7 7 7 8 8 8
13 12 11 12 12 12 12 11 11 10 9 9 9 8 7 7 5 6 6 6 6 7 8 7 4 4 4 4 5 5 5 6 7 7 7 7 7 7 8 8 7 9 9
10 9 9 9 9 10 11 12 16 13 15 17 14 11 8 6 2 5 8 9 10 10 7 5 5 6 7 7 7 7 6 7 7 7 7 7 7 8 8 8 8 8 9
9 7 7 8 8 8 9 9 9 8 11 12 12 11 8 3 3 6 8 11 12 8 4 4 5 6 6 7 7 7 7 7 6 7 7 7 8 8 9 9 9 9 9
8 8 7 6 6 7 6 7 8 7 6 5 4 4 3 2 4 8 10 10 5 2 4 6 6 6 6 6 7 7 7 7 7 7 7 7 7 8 9 9 9 10 10
8 7 6 6 6 6 5 6 6 6 6 6 5 2 4 6 7 9 8 6 7 7 7 7 7 7 6 6 6 6 7 7 8 7 7 8 8 8 9 9 10 12 11
8 8 6 5 6 6 6 6 6 5 5 5 6 5 3 2 1 1 1 4 6 7 7 7 6 6 6 5 6 6 7 7 8 8 8 9 9 9 10 11 11 10 10
7 6 6 6 7 6 6 6 6 5 6 6 6 6 5 5 6 6 6 6 6 7 6 6 6 6 6 6 6 7 8 7 8 9 9 10 11 11 10 10 11 10 10
6 6 7 7 7 6 5 5 6 5 5 5 5 4 2 4 6 6 6 6 6 5 5 5 6 5 5 6 6 7 8 8 9 10 11 11 11 11 11 10 11 11 11
6 8 7 7 6 4 4 5 5 5 5 6 5 5 4 5 5 5 6 6 5 5 7 6 5 6 8 9 9 7 7 8 9 11 11 11 11 11 11 11 13 13 12
6 6 6 6 5 4 5 5 5 5 5 5 5 4 4 4 4 5 5 5 5 6 7 7 7 8 9 9 8 9 9 11 12 13 13 12 13 12 11 12 12 13 13
6 6 6 5 4 4 5 5 5 5 4 4 4 4 4 4 4 5 5 5 6 6 8 8 8 9 10 10 11 10 12 14 14 14 14 12 12 13 13 13 12 12 12
6 5 5 5 4 4 4 4 4 3 3 4 4 4 4 4 4 5 5 6 6 6 7 8 11 11 10 10 10 10 13 16 17 18 15 12 11 12 12 11 13 12 12
Wind_Direction
168 171 166 170 173 174 175 175 182 159 154 159 169 176 181 186 184 197 241 201 209 234 253 249 250 284 320 329 323 307 299 302 285 292 297 323 135 192 160 226 243 229 223
168 167 165 165 170 173 178 179 180 164 160 165 168 170 182 183 175 190 234 229 206 220 245 263 266 262 264 307 325 328 329 325 311 303 313 327 322 264 234 245 262 262 253
167 164 164 167 169 173 174 173 166 158 161 153 150 150 148 134 138 176 200 232 204 274 311 325 345 352 342 335 326 329 328 323 330 308 298 302 297 292 288 273 276 284 287
165 164 165 171 171 175 170 163 159 155 152 137 127 118 110 90 69 52 63 64 63 53 47 49 43 40 19 350 349 353 340 331 323 308 296 295 293 301 301 287 288 286 285
158 161 165 169 163 161 157 152 145 141 140 124 112 103 96 80 51 46 53 91 84 68 61 61 61 61 51 34 22 10 359 347 335 327 317 318 327 340 332 322 308 310 298
153 159 158 155 151 149 145 140 132 122 108 100 92 84 71 58 43 49 51 65 77 76 74 74 79 61 47 42 35 28 19 354 348 335 327 332 335 341 343 331 327 322 308
144 142 141 145 144 140 137 128 121 114 104 97 91 85 74 51 43 47 47 58 71 68 63 52 49 52 37 23 11 5 8 347 286 307 314 321 324 347 349 332 324 313 297
130 132 135 134 127 121 116 112 108 103 99 95 91 87 79 55 42 42 37 60 77 75 72 68 71 57 36 17 6 7 355 352 325 296 317 319 320 328 309 294 290 289 277
120 117 118 117 113 110 108 106 103 102 99 97 94 91 82 56 40 36 29 54 76 79 79 66 72 66 36 19 11 1 353 349 346 344 317 293 284 279 272 286 292 299 300
108 102 102 104 107 108 107 106 104 103 101 99 94 90 86 70 48 40 29 40 49 59 91 82 68 62 39 24 10 354 348 345 335 324 311 295 282 275 263 241 268 294 304
103 99 97 98 100 101 100 101 104 104 103 102 102 96 89 83 64 52 43 38 24 23 46 78 70 41 17 359 340 323 324 319 310 302 302 310 321 324 332 325 310 307 309
100 99 97 94 97 100 99 98 103 111 116 117 119 116 103 87 70 61 50 41 21 18 24 32 20 336 324 312 307 302 312 314 305 316 330 340 348 353 350 341 330 316 301
99 98 98 96 92 96 100 100 102 105 116 124 122 114 109 94 71 51 36 25 13 9 3 346 317 299 302 302 274 291 308 320 338 342 342 345 347 342 335 330 325 321 313
104 103 101 96 89 77 74 72 66 54 65 77 76 80 82 67 42 23 17 18 9 12 355 323 305 290 283 304 326 325 327 350 352 347 344 342 340 338 337 338 333 330 322
103 103 100 95 92 80 72 63 69 56 60 67 65 64 66 62 36 20 17 9 359 354 333 315 334 11 13 12 10 15 11 8 5 357 348 343 341 338 334 333 329 326 321
106 110 110 109 108 105 99 82 59 68 71 75 77 84 82 84 57 6 357 340 329 334 333 333 1 16 12 8 3 2 6 8 359 346 341 340 337 334 330 328 324 322 320
96 98 108 114 117 119 120 119 109 80 66 72 80 85 91 94 358 335 334 326 309 314 321 347 16 16 10 8 5 1 358 356 349 344 342 339 335 330 327 325 323 321 319
93 91 96 100 105 112 121 127 130 131 123 106 100 120 150 220 287 308 326 327 337 22 11 18 17 12 11 9 3 358 350 346 345 340 333 333 333 329 325 322 321 319 318
86 82 81 91 96 96 101 110 112 115 121 131 139 162 231 251 260 277 311 334 7 20 19 15 11 5 4 5 1 353 347 342 340 337 337 339 334 327 321 319 316 315 313
81 73 70 83 92 91 83 81 83 89 93 99 97 61 16 316 31 38 42 21 18 18 15 9 3 357 1 4 360 355 346 341 342 343 342 336 330 325 319 315 313 311 308
101 92 83 80 77 75 77 77 73 67 70 76 82 70 13 359 29 33 30 28 21 12 11 4 354 355 5 4 358 346 343 345 350 346 338 329 322 318 314 311 309 306 305
104 98 88 87 80 70 68 71 74 72 66 70 95 105 46 7 29 29 24 22 16 8 10 1 350 358 8 359 347 346 349 354 350 337 326 319 314 311 310 308 306 307 307
106 104 99 96 96 101 91 81 75 69 60 52 48 49 51 30 24 28 19 19 10 4 4 353 347 358 3 355 354 8 13 358 338 325 320 316 313 310 307 305 304 306 306
99 101 103 103 102 97 89 82 71 65 57 51 48 40 39 36 28 30 19 17 4 359 356 348 349 352 357 360 5 15 10 348 334 324 318 310 305 303 303 303 304 306 307
99 94 94 91 89 85 78 76 71 61 55 49 47 37 27 23 25 27 19 12 356 356 351 348 350 350 357 12 14 5 352 343 335 326 317 306 302 301 301 303 305 308 310
103 100 97 94 88 87 84 78 73 62 56 52 46 33 17 12 22 22 13 2 350 352 351 347 347 355 5 10 8 359 349 342 336 330 320 305 301 303 308 309 310 312 312
Height
1499 1503 1507 1510 1514 1518 1522 1525 1528 1531 1533 1535 1537 1539 1541 1542 1544 1545 1547 1548 1548 1549 1550 1550 1551 1552 1552 1553 1553 1554 1554 1554 1554 1553 1554 1554 1554 1554 1554 1553 1553 1553 1552
1498 1502 1505 1509 1513 1517 1521 1524 1527 1530 1532 1534 1536 1538 1539 1541 1542 1544 1545 1546 1546 1547 1548 1548 1549 1549 1549 1550 1550 1550 1551 1551 1551 1550 1550 1550 1550 1550 1550 1549 1549 1548 1548
1497 1501 1505 1509 1512 1515 1519 1522 1525 1528 1530 1532 1534 1535 1537 1539 1540 1541 1543 1543 1544 1545 1546 1546 1546 1546 1546 1547 1547 1547 1547 1547 1547 1546 1546 1546 1546 1546 1545 1544 1544 1543 1543
1497 1500 1504 1508 1511 1514 1518 1521 1524 1526 1528 1530 1532 1533 1535 1536 1537 1539 1540 1541 1542 1542 1543 1543 1543 1543 1543 1543 1543 1543 1543 1543 1543 1542 1542 1542 1541 1541 1540 1539 1538 1537 1537
1496 1499 1503 1507 1510 1513 1516 1519 1521 1524 1526 1528 1530 1531 1533 1534 1535 1536 1538 1539 1539 1540 1540 1540 1540 1540 1540 1540 1540 1540 1539 1539 1539 1538 1537 1537 1536 1535 1534 1533 1532 1531 1530
1496 1499 1503 1506 1509 1511 1514 1517 1520 1522 1525 1526 1528 1530 1531 1532 1534 1534 1536 1537 1537 1538 1538 1538 1538 1538 1537 1537 1537 1537 1536 1536 1535 1534 1533 1532 1531 1530 1529 1528 1527 1525 1524
1495 1498 1501 1504 1507 1510 1513 1515 1518 1521 1523 1525 1527 1528 1530 1531 1533 1534 1534 1535 1536 1536 1536 1536 1536 1535 1535 1535 1534 1533 1533 1532 1531 1531 1529 1528 1527 1526 1524 1523 1522 1520 1518
1494 1497 1500 1503 1505 1508 1511 1514 1517 1519 1522 1524 1526 1527 1529 1531 1532 1533 1533 1534 1534 1534 1535 1535 1534 1534 1533 1532 1531 1530 1530 1529 1528 1526 1526 1524 1523 1521 1520 1518 1516 1514 1512
1493 1495 1498 1501 1504 1507 1510 1513 1516 1518 1521 1523 1525 1527 1529 1531 1532 1533 1533 1534 1534 1534 1533 1533 1532 1532 1531 1530 1529 1527 1526 1525 1525 1523 1521 1520 1519 1517 1516 1514 1512 1509 1507
1492 1495 1498 1501 1504 1507 1510 1513 1517 1519 1522 1524 1526 1528 1530 1531 1532 1533 1533 1533 1533 1533 1533 1532 1531 1530 1529 1528 1526 1525 1523 1522 1520 1519 1518 1516 1515 1514 1512 1510 1508 1506 1504
1493 1496 1499 1502 1505 1508 1511 1515 1518 1521 1523 1525 1527 1529 1531 1532 1532 1533 1533 1533 1533 1533 1533 1531 1530 1529 1528 1526 1524 1523 1521 1519 1517 1516 1514 1513 1512 1510 1509 1507 1505 1503 1501
1494 1498 1501 1504 1508 1511 1514 1518 1521 1523 1525 1527 1529 1530 1531 1532 1533 1533 1533 1533 1532 1532 1531 1530 1529 1528 1526 1524 1522 1521 1519 1517 1515 1514 1512 1511 1509 1507 1504 1503 1501 1499 1497
1496 1500 1504 1507 1511 1515 1517 1520 1523 1526 1527 1529 1531 1532 1533 1533 1533 1533 1533 1532 1531 1530 1529 1528 1527 1526 1524 1523 1521 1519 1517 1515 1513 1512 1510 1508 1506 1503 1501 1498 1495 1493 1491
1499 1503 1507 1511 1514 1517 1520 1523 1525 1527 1529 1530 1531 1533 1533 1533 1533 1532 1531 1531 1529 1528 1527 1526 1525 1524 1523 1521 1520 1517 1516 1514 1512 1510 1507 1505 1502 1500 1497 1494 1491 1488 1485
1503 1507 1511 1514 1517 1519 1522 1525 1527 1529 1530 1531 1532 1533 1533 1533 1532 1532 1530 1529 1528 1527 1526 1525 1524 1523 1522 1520 1519 1517 1514 1512 1510 1508 1505 1502 1499 1497 1494 1491 1488 1485 1482
1507 1511 1514 1518 1521 1523 1525 1527 1529 1530 1532 1532 1533 1533 1533 1533 1532 1531 1530 1529 1528 1527 1526 1525 1524 1522 1521 1519 1517 1515 1513 1510 1508 1506 1503 1500 1497 1494 1491 1488 1485 1482 1479
1511 1514 1518 1521 1523 1525 1527 1528 1529 1531 1532 1533 1533 1533 1533 1533 1532 1531 1530 1529 1528 1527 1526 1525 1524 1522 1521 1519 1516 1514 1512 1510 1507 1504 1501 1498 1495 1492 1488 1485 1482 1479 1475
1515 1518 1521 1523 1525 1527 1529 1530 1531 1532 1533 1533 1534 1534 1534 1533 1533 1532 1531 1529 1529 1528 1527 1525 1524 1522 1520 1518 1516 1513 1511 1508 1505 1502 1499 1496 1493 1489 1486 1482 1479 1475 1472
1519 1521 1524 1526 1527 1529 1531 1532 1533 1534 1534 1534 1534 1534 1534 1534 1533 1532 1531 1530 1529 1528 1527 1525 1523 1521 1519 1517 1514 1512 1509 1506 1503 1500 1497 1494 1490 1487 1483 1479 1475 1472 1468
1521 1524 1526 1528 1529 1531 1532 1534 1535 1536 1536 1536 1536 1535 1535 1534 1533 1533 1532 1531 1530 1528 1526 1524 1523 1521 1519 1516 1513 1510 1507 1504 1501 1498 1495 1491 1487 1484 1480 1476 1472 1468 1464
1525 1526 1528 1530 1531 1532 1534 1535 1536 1536 1537 1536 1536 1536 1535 1535 1535 1534 1532 1531 1530 1528 1526 1524 1522 1520 1517 1515 1512 1509 1506 1503 1500 1496 1492 1488 1484 1480 1476 1472 1469 1465 1461
1527 1529 1530 1531 1532 1533 1535 1536 1536 1537 1537 1537 1537 1536 1536 1535 1535 1534 1532 1531 1529 1528 1526 1523 1521 1519 1516 1514 1511 1508 1504 1501 1497 1493 1488 1484 1480 1476 1472 1469 1465 1461 1457
1529 1530 1532 1533 1533 1534 1535 1536 1537 1537 1537 1538 1538 1537 1536 1536 1535 1534 1532 1531 1529 1527 1525 1523 1521 1518 1515 1512 1510 1506 1502 1498 1494 1490 1485 1480 1476 1472 1469 1465 1462 1458 1454
1531 1532 1533 1534 1535 1535 1536 1537 1537 1537 1538 1538 1538 1537 1537 1535 1534 1533 1532 1530 1528 1526 1524 1522 1520 1517 1514 1511 1508 1504 1500 1496 1492 1487 1482 1478 1473 1469 1465 1462 1459 1455 1451
1532 1533 1534 1535 1535 1536 1537 1537 1538 1538 1538 1538 1538 1537 1536 1535 1534 1533 1531 1529 1528 1526 1523 1521 1518 1515 1512 1509 1505 1501 1497 1493 1489 1484 1479 1475 1470 1466 1463 1459 1456 1452 1448
1533 1534 1534 1535 1536 1537 1537 1538 1538 1538 1538 1538 1537 1537 1536 1535 1534 1532 1530 1529 1527 1525 1522 1519 1517 1513 1510 1506 1502 1498 1494 1490 1485 1481 1476 1471 1467 1464 1460 1457 1453 1449 1445